Date String (YYYY-MM-DD hh:mm:ss) UTC,Instrument flags,absolute air pressure of the measurement (hPa),sample flow rate (lpm),inlet stack bypass flow (lpm),air temperature of the measurement (°C),ambient temperature measured by the external sensor (°C),aerosol sample conditioner tube jacket temperature (°C),OPC LED temperature (°C),internal box temperature (°C),relative humidity of the measurement (%),span deviation,mass concentration of particles derived from Lorenz-Mie calculation of OPC scattering (μg/m³),mass concentration of particles derived from Lorenz-Mie calculation of OPC scattering (μg/m³),mass concentration of particles derived from Lorenz-Mie calculation of OPC scattering (μg/m³)
DateTimeUTC,F1_M11,P_M11,Q1_M11,Q2_M11,T1_M11,T2_M11,T3_M11,T4_M11,T5_M11,U1_M11,ZSPAN_M11,X0_M11,X2_M11,X1_M11
2023-06-02 19:00:00,SystemResetWarning,0828.3,5.00,000.00,030.0,028.7,000.0,038.2,031.6,26.2,0000.0,0004.95,0002.17,0001.48
2023-06-02 19:01:00,SystemResetWarning,0828.4,4.99,000.00,030.0,028.7,000.0,038.2,031.7,25.7,0000.0,0004.91,0002.16,0001.50
2023-06-02 19:02:00,SystemResetWarning,0828.3,5.00,000.00,030.0,028.7,000.0,038.3,031.7,26.5,0000.0,0005.11,0002.16,0001.51
2023-06-02 19:03:00,SystemResetWarning,0828.3,5.00,000.00,030.0,028.7,000.0,038.3,031.7,26.3,0000.0,0005.33,0002.15,0001.53
2023-06-02 19:04:00,SystemResetWarning,0828.3,5.00,000.00,030.1,028.7,000.0,038.3,031.7,26.3,0000.0,0005.51,0002.22,0001.56
2023-06-02 19:05:00,SystemResetWarning,0828.3,5.00,000.00,030.1,028.6,000.0,038.3,031.7,26.6,0000.0,0005.80,0002.31,0001.58
2023-06-02 19:06:00,SystemResetWarning,0828.2,4.99,000.00,030.1,027.2,000.0,038.3,031.5,26.1,0000.0,0006.03,0002.42,0001.60
2023-06-02 19:07:00,SystemResetWarning,0828.2,5.00,000.00,030.0,025.6,000.0,038.2,031.2,26.1,0000.0,0006.04,0002.46,0001.61
2023-06-02 19:08:00,SystemResetWarning,0828.2,5.01,000.00,029.9,025.1,000.0,038.1,031.1,26.0,0000.0,0006.11,0002.54,0001.64
2023-06-02 19:09:00,SystemResetWarning,0828.1,5.01,000.00,029.7,025.3,000.0,038.1,031.0,26.5,0000.0,0005.18,0002.57,0001.66
2023-06-02 19:10:00,SystemResetWarning,0828.1,5.00,000.00,029.7,025.7,000.0,038.1,031.0,26.8,0000.0,0005.12,0002.57,0001.68
2023-06-02 19:11:00,SystemResetWarning,0828.2,5.00,000.00,029.6,026.1,000.0,038.0,031.0,26.1,0000.0,0005.24,0002.59,0001.68
2023-06-02 19:12:00,SystemResetWarning,0828.1,5.00,000.00,029.6,026.5,000.0,038.0,031.1,26.2,0000.0,0005.58,0002.67,0001.68
2023-06-02 19:13:00,SystemResetWarning,0828.1,5.00,000.00,029.6,026.8,000.0,038.0,031.1,26.5,0000.0,0005.65,0002.69,0001.68
2023-06-02 19:14:00,SystemResetWarning,0828.1,5.00,000.00,029.6,027.1,000.0,038.0,031.1,26.6,0000.0,0005.20,0002.68,0001.68
2023-06-02 19:15:00,SystemResetWarning,0828.0,5.00,000.00,029.6,027.4,000.0,038.0,031.1,26.6,0000.0,0005.04,0002.64,0001.67
2023-06-02 19:16:00,SystemResetWarning,0828.1,5.00,000.00,029.6,027.5,000.0,038.0,031.1,26.6,0000.0,0004.93,0002.59,0001.66
2023-06-02 19:17:00,SystemResetWarning,0828.1,5.00,000.00,029.6,027.7,000.0,038.0,031.2,26.0,0000.0,0004.95,0002.58,0001.65
2023-06-02 19:18:00,SystemResetWarning,0828.1,4.99,000.00,029.6,027.8,000.0,038.0,031.2,25.5,0000.0,0004.94,0002.56,0001.66
2023-06-02 19:19:00,SystemResetWarning,0828.1,4.99,000.00,029.6,028.0,000.0,038.0,031.3,26.3,0000.0,0005.25,0002.48,0001.63
2023-06-02 19:20:00,SystemResetWarning,0828.0,5.00,000.00,029.6,028.1,000.0,038.0,031.3,25.9,0000.0,0005.25,0002.45,0001.61
2023-06-02 19:21:00,SystemResetWarning,0828.1,5.00,000.00,029.7,028.1,000.0,038.0,031.3,24.9,0000.0,0005.40,0002.46,0001.60
2023-06-02 19:22:00,SystemResetWarning,0828.1,5.01,000.00,029.7,028.2,000.0,038.0,031.3,24.8,0000.0,0005.44,0002.44,0001.59
2023-06-02 19:23:00,SystemResetWarning,0828.1,5.00,000.00,029.7,028.3,000.0,038.0,031.4,24.8,0000.0,0005.20,0002.39,0001.58
2023-06-02 19:24:00,SystemResetWarning,0828.1,4.99,000.00,029.7,028.3,000.0,038.0,031.4,24.7,0000.0,0005.08,0002.36,0001.57
2023-06-02 19:25:00,SystemResetWarning,0828.1,4.99,000.00,029.7,028.4,000.0,038.0,031.4,24.6,0000.0,0004.95,0002.32,0001.56
2023-06-02 19:26:00,SystemResetWarning,0828.1,5.00,000.00,029.8,028.4,000.0,038.1,031.4,24.6,0000.0,0004.74,0002.22,0001.53
2023-06-02 19:27:00,SystemResetWarning,0828.1,5.00,000.00,029.8,028.5,000.0,038.1,031.5,24.6,0000.0,0004.58,0002.21,0001.51
2023-06-02 19:28:00,SystemResetWarning,0828.1,5.00,000.00,029.8,028.5,000.0,038.1,031.5,24.9,0000.0,0004.45,0002.17,0001.49
2023-06-02 19:29:00,SystemResetWarning,0828.1,5.01,000.00,029.8,028.5,000.0,038.1,031.5,25.0,0000.0,0004.50,0002.17,0001.49
2023-06-02 19:30:00,SystemResetWarning,0828.1,5.00,000.00,029.9,028.6,000.0,038.1,031.5,25.3,0000.0,0004.30,0002.25,0001.50
2023-06-02 19:31:00,SystemResetWarning,0828.1,5.00,000.00,029.9,028.6,000.0,038.2,031.6,25.9,0000.0,0004.06,0002.25,0001.50
2023-06-02 19:32:00,SystemResetWarning,0828.1,4.99,000.00,029.9,028.2,000.0,038.1,031.5,26.3,0000.0,0003.92,0002.23,0001.49
2023-06-02 19:33:00,SystemResetWarning,0828.1,5.00,000.00,029.9,026.6,000.0,038.1,031.3,26.4,0000.0,0003.75,0002.21,0001.48
2023-06-02 19:34:00,SystemResetWarning,0828.0,5.01,000.00,029.8,026.0,000.0,038.0,031.2,25.6,0000.0,0003.65,0002.17,0001.47
2023-06-02 19:35:00,SystemResetWarning,0828.1,5.01,000.00,029.7,026.1,000.0,038.0,031.1,26.0,0000.0,0003.72,0002.18,0001.48
2023-06-02 19:36:00,SystemResetWarning,0828.0,4.99,000.00,029.7,026.3,000.0,038.0,031.1,26.2,0000.0,0004.01,0002.23,0001.50
2023-06-02 19:37:00,SystemResetWarning,0828.1,5.00,000.00,029.6,026.6,000.0,038.0,031.1,25.4,0000.0,0004.31,0002.33,0001.53
2023-06-02 19:38:00,SystemResetWarning,0828.0,5.00,000.00,029.6,026.9,000.0,038.0,031.2,25.4,0000.0,0004.38,0002.37,0001.54
2023-06-02 19:39:00,SystemResetWarning,0828.1,4.98,000.00,029.6,027.2,000.0,038.0,031.2,26.1,0000.0,0004.39,0002.37,0001.57
2023-06-02 19:40:00,SystemResetWarning,0828.0,4.99,000.00,029.6,027.5,000.0,038.0,031.2,26.0,0000.0,0004.32,0002.36,0001.57
2023-06-02 19:41:00,SystemResetWarning,0828.0,5.00,000.00,029.6,027.6,000.0,038.0,031.2,25.2,0000.0,0004.11,0002.29,0001.57
2023-06-02 19:42:00,SystemResetWarning,0827.8,5.00,000.00,029.6,027.8,000.0,038.0,031.2,26.0,0000.0,0004.13,0002.31,0001.58
2023-06-02 19:43:00,SystemResetWarning,0827.7,5.01,000.00,029.6,027.9,000.0,038.0,031.3,25.8,0000.0,0005.74,0002.39,0001.59
2023-06-02 19:44:00,SystemResetWarning,0827.8,4.99,000.00,029.7,028.0,000.0,038.0,031.3,25.6,0000.0,0006.34,0002.42,0001.60
2023-06-02 19:45:00,SystemResetWarning,0827.7,4.99,000.00,029.7,028.1,000.0,038.0,031.3,25.6,0000.0,0006.43,0002.48,0001.61
2023-06-02 19:46:00,SystemResetWarning,0827.7,5.01,000.00,029.7,028.2,000.0,038.0,031.3,25.8,0000.0,0006.29,0002.44,0001.61
2023-06-02 19:47:00,SystemResetWarning,0827.7,5.01,000.00,029.7,028.3,000.0,038.0,031.4,25.6,0000.0,0005.96,0002.37,0001.59
2023-06-02 19:48:00,SystemResetWarning,0827.7,5.00,000.00,029.7,028.3,000.0,038.0,031.4,25.9,0000.0,0005.89,0002.35,0001.58
2023-06-02 19:49:00,SystemResetWarning,0827.7,4.99,000.00,029.8,028.4,000.0,038.1,031.4,25.4,0000.0,0005.81,0002.30,0001.57
2023-06-02 19:50:00,SystemResetWarning,0827.7,5.00,000.00,029.8,028.4,000.0,038.1,031.4,24.8,0000.0,0005.74,0002.26,0001.55
2023-06-02 19:51:00,SystemResetWarning,0827.6,5.00,000.00,029.8,028.4,000.0,038.1,031.5,24.7,0000.0,0005.71,0002.24,0001.53
2023-06-02 19:52:00,SystemResetWarning,0827.6,5.00,000.00,029.8,028.5,000.0,038.1,031.5,24.6,0000.0,0005.65,0002.22,0001.51
2023-06-02 19:53:00,SystemResetWarning,0827.6,4.99,000.00,029.9,027.8,000.0,038.1,031.4,25.1,0000.0,0005.61,0002.19,0001.49
2023-06-02 19:54:00,SystemResetWarning,0827.6,5.00,000.00,029.8,026.3,000.0,038.0,031.2,25.6,0000.0,0004.36,0002.14,0001.48
2023-06-02 19:55:00,SystemResetWarning,0827.4,5.01,000.00,029.8,026.0,000.0,037.9,031.1,24.9,0000.0,0003.46,0002.09,0001.46
2023-06-02 19:56:00,SystemResetWarning,0827.4,5.01,000.00,029.7,026.1,000.0,037.9,031.1,23.8,0000.0,0003.48,0002.07,0001.43
2023-06-02 19:57:00,SystemResetWarning,0827.4,5.01,000.00,029.6,026.4,000.0,037.9,031.1,24.0,0000.0,0003.53,0002.07,0001.41
2023-06-02 19:58:00,SystemResetWarning,0827.4,4.98,000.00,029.6,026.7,000.0,037.9,031.1,23.1,0000.0,0003.63,0002.04,0001.38
2023-06-02 19:59:00,SystemResetWarning,0827.4,5.00,000.00,029.6,027.0,000.0,037.9,031.1,24.0,0000.0,0003.57,0002.01,0001.35
